Location: Asbacherhof
(48.8543°N, 10.7903°E)
Time: 22:37:27
(UTC+00:00)

Cosmos 1408 - Pass Details

Date: 26 May 2022
Orbit: 447 x 484 km, 82.6° (Epoch: 26 June)

Event Time Altitude Azimuth Distance (km) Brightness Sun altitude
Rises 02:16:01 0° 164° (SSE) 2,542 5.9 -9.1°
Reaches altitude 10° 02:18:16 10° 153° (SSE) 1,664 5.1 -8.9°
Maximum altitude 02:21:29 30° 91° (E) 893 4.4 -8.5°
Drops below altitude 10° 02:24:41 10° 30° (NNE) 1,664 6.8 -8.2°
Sets 02:26:56 0° 19° (NNE) 2,542 7.5 -7.9°
